Regional Weather Roundup
Issued by NWS

Home | Current Version | Previous Version | Text Only | Print | Product List | Glossary On
Versions: 1 2 3 4 5 6 7 8 9 10 11 12 13 14 15 16 17 18 19 20 21 22 23 24 25 26 27 28 29 30 31 32 33 34 35 36 37 38 39 40 41 42 43 44 45 46 47 48 49 50
000
ASUS42 KTBW 310115
RWRFL
FLORIDA REGIONAL WEATHER ROUNDUP
NATIONAL WEATHER SERVICE TAMPA BAY RUSKIN FL
900 PM EDT MON MAR 30 2015

NOTE: "FAIR" INDICATES FEW OR NO CLOUDS BELOW 12,000 FEET WITH NO
SIGNIFICANT WEATHER AND/OR OBSTRUCTIONS TO VISIBILITY.


FLZ001>010-012>015-112-114-115-310200-
PANHANDLE FLORIDA

CITY           SKY/WX    TMP DP  RH WIND       PRES   REMARKS
PENSACOLA      CLEAR     69  63  81 SW9       30.13R
PENSACOLA NAS  CLEAR     68  64  87 SW6       30.13R
MILTON NAS     PTCLDY    70  61  73 SW9       30.12
CRESTVIEW      PTCLDY    70  62  76 SW10      30.14R
DUKE FIELD     PTCLDY    69  62  76 SW9       30.12R
VALPARAISO     PTCLDY    69  63  80 W7G16     30.13R
MARY ESTHER    CLEAR     68  61  78 VRB6      30.13R
TRI COUNTY     FAIR      66  63  90 S7        30.14R
PANAMA CITY    FAIR      67  63  87 S6        30.14R
TYNDALL AFB    CLEAR     67  64  90 SW5       30.16R
APALACHICOLA   PTCLDY    70  62  76 SW5       30.17R

STATION/POSITION SKY/WX   TEMP    WIND        PRES    WAVE   SWELL
                          AIR SEA DIR/SP/G            HT/PER HT/PER
                          (F)     (DEG/KT/KT) (MB)    (FT/S) (FT/S)
30.1N   87.6W              70 68  220/ 16/ 19 1019.4R   3/ 5
29.2N   88.2W              71 71  210/ 14/ 16 1021.6R   3/ 5
28.8N   86.0W              73 74  240/ 14/ 16 1022.1R   2/ 3   2/ 7
PANAMA CITY BEAC           68 66  240/  7/  8 1020.2R
CAPE SAN BLAS    NOT AVBL
TOWER C                    68     200/ 11/ 11 1021.6R
28.5N   84.5W              70 69  240/ 12/ 16 1022.2R   1/ 5

$$
FLZ011-016>038-118-127-128-134-139-239-310200-
NORTH FLORIDA

CITY           SKY/WX    TMP DP  RH WIND       PRES   REMARKS
MARIANNA       CLEAR     64  63  96 S8        30.12R
TALLAHASSEE    PTCLDY    65  62  90 S3        30.13R
PERRY          CLOUDY    65  59  81 S6        30.16S
CROSS CITY       N/A     63  58  83 SW5       30.16S
LAKE CITY      FAIR      63  55  77 SW8       30.15S
GAINESVILLE    CLEAR     64  54  69 SW10      30.16R
MAYPORT NAS    MOCLDY    69  56  62 SW5       30.11R
JACKSONVILLE   PTCLDY    67  55  65 W9        30.11R
JAX NAS        PTCLDY    72  55  55 W10       30.13R
JAX CRAIG      CLEAR     72  54  53 W13       30.12R
JAX CECIL      CLEAR     66  55  68 SW7       30.13R
FERNANDINA BEA FAIR      68  61  77 CALM      30.10R
ST AUGUSTINE   PTCLDY    70  56  61 SW12      30.14R

STATION/POSITION SKY/WX   TEMP    WIND        PRES    WAVE   SWELL
                          AIR SEA DIR/SP/G            HT/PER HT/PER
                          (F)     (DEG/KT/KT) (MB)    (FT/S) (FT/S)
SHELL POINT                68     220/ 11/ 12   N/A
KEATON BEACH               66     230/ 13/ 15 1021.6R
CEDAR KEY                  67     250/  8/ 12 1022.4R
FERNANDINA                 65 61  130/  5/  7 1018.4F
30.7N   81.3W                 61                N/A     2/10
MAYPORT                    72 62  260/  6/  8 1019.3R
31.4N   80.9W              62 61  210/  8/ 10 1019.2R   2/ 9   2/ 9
ST AUGUSTINE               69 63  240/  8/ 10 1021.2R

$$
FLZ040-043>046-052-053-057-058-063-144-310200-
INTERIOR CENTRAL FLORIDA

CITY           SKY/WX    TMP DP  RH WIND       PRES   REMARKS
OCALA          CLEAR     63  52  67 SW7       30.18S
THE VILLAGES     N/A     64  52  63 W8        30.09R
LEESBURG       CLEAR     68  55  63 W9        30.19R
SANFORD        CLEAR     70  48  45 SW5       30.16R
ORLANDO EXEC   CLEAR     70  48  45 SW6       30.16R
ORLANDO INTL   CLEAR     69  49  48 SW6       30.17R
KISSIMMEE      CLEAR     66  54  63 CALM      30.18R
WINTER HAVEN   CLEAR     69  50  50 W3        30.19R
LAKELAND       CLEAR     66  54  63 W3        30.19R
BARTOW         FAIR      63  52  67 SW3       30.20R
OKEECHOBEE     CLEAR     59  45  58 CALM      30.19R

$$
FLZ041-047-054-059-064-141-147-310200-
EAST CENTRAL FLORIDA

CITY           SKY/WX    TMP DP  RH WIND       PRES   REMARKS
DAYTONA BEACH  PTCLDY    67  52  58 SW5       30.15R
DELAND           N/A    N/A N/A N/A W8        30.16R
NEW SMYRNA BEA CLEAR     64  54  68 CALM      30.16R
JFK SPACE CTR  CLEAR     75  45  34 E7          N/A
TITUSVILLE     CLEAR     63  54  72 S8        30.17R
CAPE CANAVERAL CLEAR     64  55  72 S8        30.16R
PATRICK AFB    CLEAR     67  55  65 S8        30.17
MELBOURNE      CLEAR     66  53  63 S6        30.18R
VERO BEACH     CLEAR     62  52  69 CALM      30.19R
FT PIERCE      CLEAR     60  53  77 CALM      30.18R
STUART         CLEAR     64  52  63 CALM      30.20R

STATION/POSITION SKY/WX   TEMP    WIND        PRES    WAVE   SWELL
                          AIR SEA DIR/SP/G            HT/PER HT/PER
                          (F)     (DEG/KT/KT) (MB)    (FT/S) (FT/S)
28.5N   80.2W              69 70  190/  8/ 10 1021.6R
28.9N   78.5W              70 75  230/ 12/ 16 1021.5R
TRIDENT PIER               69 72  170/  5/  9 1021.7R
28.4N   80.5W                 71                N/A     2/ 8
27.5N   80.2W                 75                N/A     3/ 8

$$
FLZ050-056-061-142-242-148-248-149-249-151-251-155-255-
160-260-310200-
WEST CENTRAL FLORIDA

CITY           SKY/WX    TMP DP  RH WIND       PRES   REMARKS
CRYSTAL RIVER  FAIR      61  54  77 CALM      30.19R
INVERNESS      FAIR     N/A N/A N/A CALM      30.20R
BROOKSVILLE    CLEAR     59  53  80 SW5       30.21R
ZEPHYRHILLS    FAIR      64  52  63 NW5       30.20R
CLEARWATER     CLEAR     65  55  70 W6        30.20R
TAMPA INTL     CLEAR     66  53  63 NW6       30.21R
TAMPA EXEC     CLEAR     68  54  60 NW3       30.20R
PLANT CITY     CLEAR     68  55  64 W3        30.21R
MACDILL AFB    CLEAR     67  56  69 NW6       30.20R
PETER O KNIGHT CLEAR     70  55  60 NW3       30.20R
ST PETERSBURG  CLEAR     68  55  63 W9        30.19R
SARASOTA       CLEAR     63  54  72 NW7       30.19R
VENICE         FAIR      66  55  68 NW7       30.21R

STATION/POSITION SKY/WX   TEMP    WIND        PRES    WAVE   SWELL
                          AIR SEA DIR/SP/G            HT/PER HT/PER
                          (F)     (DEG/KT/KT) (MB)    (FT/S) (FT/S)
CEDAR KEY                  67     250/  8/ 12 1022.4R
28.5N   84.5W              70 69  240/ 12/ 16 1022.2R   1/ 5
27.3N   84.2W                 72                N/A     1/ 5
CLEARWATER BEACH NOT AVBL
MIDDLE TAMPA BAY           68     300/  9/ 11 1022.6
VENICE                     69 73  310/ 10/ 11 1022.3R

$$
FLZ066-069-070-075>078-162-262-165-265-310200-
SOUTHWEST FLORIDA AND KEYS

CITY           SKY/WX    TMP DP  RH WIND       PRES   REMARKS
PUNTA GORDA    CLEAR     66  55  67 NW8       30.21R
FT MYERS       CLEAR     67  55  65 W5        30.19R
SOUTHWEST INTL CLEAR     67  54  63 NW6       30.19R
NAPLES         CLEAR     69  56  62 NW3       30.18R
MARCO ISLAND   PTCLDY    66  54  63 NW6       30.18S
IMMOKALEE      CLEAR    N/A N/A N/A CALM      30.19R
MARATHON       CLEAR     71  53  52 NE3       30.19R
KEY WEST NAS   CLEAR     70  52  52 N8        30.19R
KEY WEST INTL  CLEAR     70  53  54 N7        30.20R

STATION/POSITION SKY/WX   TEMP    WIND        PRES    WAVE   SWELL
                          AIR SEA DIR/SP/G            HT/PER HT/PER
                          (F)     (DEG/KT/KT) (MB)    (FT/S) (FT/S)
VENICE                     69 73  310/ 10/ 11 1022.3R
NAPLES                     70 74  310/ 13/ 15 1021.6R
26.0N   85.6W              72 74   80/ 10/ 10 1023.1R   2/ 6   2/ 6
DRY TORTUGAS               70      30/ 11/ 14 1022.1S
NW FL BAY                  73      10/  6/  9 1022.1
SAND KEY                   71      10/ 10/ 12 1022.4R
SOMBRERO KEY               72      30/  6/  7 1023.2R
LONG KEY                   72 73   90/  2/  3 1023.3R
MOLASSES REEF              72 76   70/  7/  9 1022.3R

$$
FLZ067-068-071>074-168-172>174-310200-
SOUTHEAST FLORIDA

CITY           SKY/WX    TMP DP  RH WIND       PRES   REMARKS
W PALM BEACH   CLEAR     70  52  52 S3        30.18R
FT LAUDER-EXEC CLEAR     70  53  54 E3        30.18S
FT LAUDERDALE  CLEAR     71  54  54 E5        30.17S
POMPANO BEACH  CLEAR     70  53  54 E6        30.18S
PEMBROKE PINES CLEAR     70  54  56 E3        30.19S
OPA LOCKA      CLEAR     69  54  58 SE6       30.18S
MIAMI          CLEAR     71  54  54 E7        30.18S
WEST KENDALL   CLEAR     69  56  62 SE5       30.18F
HOMESTEAD      CLEAR     67  59  77 SE1       30.19R

STATION/POSITION SKY/WX   TEMP    WIND        PRES    WAVE   SWELL
                          AIR SEA DIR/SP/G            HT/PER HT/PER
                          (F)     (DEG/KT/KT) (MB)    (FT/S) (FT/S)
PORT EVERGLADES            72      90/  4/  7 1021.8R
VIRGINIA KEY               72 76   80/  7/  9 1021.6R
LAKE WORTH                 71 78  130/  6/  9 1021.3F



USA.gov is the U.S. government's official web portal to all federal, state and local government web resources and services.